EW9081 Weather Reports


Display with metric or nautical units.
time (UTC)temp
F
wind
direction
speed
MPH
gust
MPH
rain 1hr
in
rain 24hr
in
rain mn
in
humidity
%
barometer
mb
20260507151703 53 258 0.0 2.0 0.00 0.00 0.00 82 1020.6
20260507151204 53 255 1.0 3.0 0.00 0.00 0.00 83 1020.7
20260507150703 53 306 1.0 3.0 0.00 0.00 0.00 82 1020.6
20260507150203 53 261 1.0 3.0 0.00 0.00 0.00 83 1020.7
20260507145704 53 248 0.0 3.0 0.00 0.00 0.00 83 1020.7
20260507145202 53 250 1.0 2.0 0.00 0.00 0.00 84 1020.6
20260507144706 53 261 0.0 3.0 0.00 0.00 0.00 84 1020.6
20260507144702 53 261 1.0 2.0 0.00 0.00 0.00 83 1020.6
20260507143701 52 261 0.0 3.0 0.00 0.00 0.00 84 1020.6
20260507143206 52 262 1.0 2.0 0.00 0.00 0.00 84 1020.6
20260507143202 52 261 1.0 2.0 0.00 0.00 0.00 84 1020.6
20260507142814 52 239 1.0 2.0 0.00 0.00 0.00 85 1020.6
20260507141659 52 238 0.0 2.0 0.00 0.00 0.00 85 1020.5
20260507141201 52 244 0.0 2.0 0.00 0.00 0.00 85 1020.4
20260507140701 52 244 0.0 2.0 0.00 0.00 0.00 85 1020.5
20260507140159 52 244 0.0 2.0 0.00 0.00 0.00 85 1020.4
20260507135659 52 244 0.0 2.0 0.00 0.00 0.00 85 1020.4
20260507135203 52 242 0.0 3.0 0.00 0.00 0.00 85 1020.3
20260507135158 51 240 0.0 3.0 0.00 0.00 0.00 85 1020.3
20260507134158 51 234 1.0 3.0 0.00 0.00 0.00 85 1020.2
20260507133658 51 235 1.0 3.0 0.00 0.00 0.00 84 1020.3
20260507133157 51 248 0.0 2.0 0.00 0.00 0.00 85 1020.2
20260507132657 51 249 1.0 3.0 0.00 0.00 0.00 85 1020.2
20260507132155 51 238 1.0 3.0 0.00 0.00 0.00 85 1020.2
20260507131655 51 232 1.0 3.0 0.00 0.00 0.00 85 1020.3
20260507131155 51 229 1.0 3.0 0.00 0.00 0.00 85 1020.3
20260507130659 51 222 1.0 3.0 0.00 0.00 0.00 85 1020.3
20260507130655 51 239 1.0 3.0 0.00 0.00 0.00 85 1020.3
20260507125655 51 226 0.0 2.0 0.00 0.00 0.00 85 1020.3
20260507125154 51 225 0.0 2.0 0.00 0.00 0.00 85 1020.3
20260507124654 52 222 1.0 3.0 0.00 0.00 0.00 85 1020.4
20260507124153 52 221 1.0 3.0 0.00 0.00 0.00 84 1020.3
20260507123657 52 225 0.0 2.0 0.00 0.00 0.00 85 1020.4
20260507123653 52 225 0.0 0.0 0.00 0.00 0.00 85 1020.4
20260507122653 52 222 1.0 2.0 0.00 0.00 0.00 84 1020.4
20260507122154 52 221 1.0 3.0 0.00 0.00 0.00 85 1020.4
20260507121653 52 224 1.0 3.0 0.00 0.00 0.00 84 1020.5
20260507121156 52 224 1.0 4.0 0.00 0.00 0.00 84 1020.5
20260507121152 52 250 1.0 4.0 0.00 0.00 0.00 84 1020.5
20260507120157 52 226 1.0 4.0 0.00 0.00 0.00 85 1020.6
20260507120153 52 235 2.0 3.0 0.00 0.00 0.00 84 1020.5
20260507115652 52 215 2.0 4.0 0.00 0.00 0.00 85 1020.5
20260507114652 52 238 0.0 3.0 0.00 0.00 0.00 85 1020.7
20260507114152 52 251 0.0 2.0 0.00 0.00 0.00 85 1020.7
20260507113651 52 251 0.0 2.0 0.00 0.00 0.00 85 1020.7
20260507113153 52 251 0.0 2.0 0.00 0.00 0.00 85 1020.7
20260507112652 52 251 0.0 2.0 0.00 0.00 0.00 85 1020.8
20260507112150 52 238 0.0 2.0 0.00 0.00 0.00 85 1020.8
20260507111651 52 237 0.0 3.0 0.00 0.00 0.00 85 1020.8
20260507111150 52 237 1.0 3.0 0.00 0.00 0.00 85 1020.8
20260507110650 52 223 1.0 3.0 0.00 0.00 0.00 85 1020.8
20260507110150 52 223 1.0 3.0 0.00 0.00 0.00 85 1020.8
20260507105654 52 277 1.0 3.0 0.00 0.00 0.00 85 1020.9
20260507105649 52 222 1.0 3.0 0.00 0.00 0.00 85 1020.9
20260507104650 52 259 1.0 3.0 0.00 0.00 0.00 85 1020.9
20260507104149 52 266 1.0 5.0 0.00 0.00 0.00 85 1020.9
20260507103654 52 250 0.0 3.0 0.00 0.00 0.00 85 1021.0
20260507103648 52 241 1.0 5.0 0.00 0.00 0.00 85 1020.9
20260507102647 52 252 0.0 3.0 0.00 0.00 0.00 85 1021.0
20260507102152 52 235 1.0 3.0 0.00 0.00 0.00 84 1021.0
20260507102147 52 252 1.0 3.0 0.00 0.00 0.00 85 1021.0
20260507101647 52 242 1.0 3.0 0.00 0.00 0.00 85 1021.0
20260507100653 52 257 1.0 3.0 0.00 0.00 0.00 84 1021.0
20260507100647 52 251 1.0 3.0 0.00 0.00 0.00 84 1021.0
20260507095648 52 252 1.0 3.0 0.00 0.00 0.00 84 1021.1
20260507095150 52 252 1.0 3.0 0.00 0.00 0.00 84 1021.2
20260507095145 52 244 1.0 3.0 0.00 0.00 0.00 84 1021.1
20260507094145 52 261 1.0 3.0 0.00 0.00 0.00 84 1021.2
20260507093645 52 257 0.0 3.0 0.00 0.00 0.00 84 1021.3
20260507093146 52 247 0.0 1.0 0.00 0.00 0.00 84 1021.3
20260507092644 52 247 0.0 2.0 0.00 0.00 0.00 84 1021.3
20260507092144 52 247 0.0 2.0 0.00 0.00 0.00 84 1021.4
20260507091644 52 245 1.0 2.0 0.00 0.00 0.00 83 1021.4
20260507091144 52 256 1.0 3.0 0.00 0.00 0.00 83 1021.4
20260507090645 52 226 1.0 4.0 0.00 0.00 0.00 83 1021.5
20260507090149 52 259 1.0 4.0 0.00 0.00 0.00 83 1021.6
20260507090144 52 248 1.0 4.0 0.00 0.00 0.00 83 1021.5
20260507085144 52 250 1.0 4.0 0.00 0.00 0.00 83 1021.5
20260507084642 53 277 0.0 3.0 0.00 0.00 0.00 83 1021.5
20260507084145 53 263 1.0 3.0 0.00 0.00 0.00 83 1021.5
20260507084141 53 270 1.0 3.0 0.00 0.00 0.00 83 1021.5
20260507083143 53 254 1.0 3.0 0.00 0.00 0.00 83 1021.5
20260507083138 53 259 1.0 3.0 0.00 0.00 0.00 83 1021.6
20260507082143 53 264 1.0 3.0 0.00 0.00 0.00 83 1021.4
20260507082139 53 250 1.0 3.0 0.00 0.00 0.00 83 1021.4
20260507081752 53 264 0.0 4.0 0.00 0.00 0.00 83 1021.4
20260507081139 53 244 1.0 4.0 0.00 0.00 0.00 83 1021.4
20260507080637 53 254 1.0 3.0 0.00 0.00 0.00 83 1021.4
20260507075636 53 260 1.0 4.0 0.00 0.00 0.00 84 1021.4
20260507075136 53 241 1.0 4.0 0.00 0.00 0.00 83 1021.4
20260507074637 53 259 1.0 4.0 0.00 0.00 0.00 83 1021.4
20260507074138 53 257 1.0 4.0 0.00 0.00 0.00 83 1021.4
20260507073637 53 247 1.0 4.0 0.00 0.00 0.00 83 1021.5
20260507073137 53 265 1.0 6.0 0.00 0.00 0.00 83 1021.4
20260507072638 53 251 1.0 6.0 0.00 0.00 0.00 83 1021.4
20260507072142 53 269 1.0 5.0 0.00 0.00 0.00 83 1021.5
20260507072137 53 214 1.0 6.0 0.00 0.00 0.00 83 1021.5
20260507071142 53 232 1.0 5.0 0.00 0.00 0.00 83 1021.4
20260507071138 53 254 1.0 5.0 0.00 0.00 0.00 83 1021.4
20260507070137 53 213 1.0 4.0 0.00 0.00 0.00 83 1021.5
20260507065639 53 276 1.0 4.0 0.00 0.00 0.00 83 1021.5
20260507065142 53 273 2.0 6.0 0.00 0.00 0.00 83 1021.4
20260507065137 53 226 1.0 5.0 0.00 0.00 0.00 83 1021.4
20260507064139 53 257 2.0 6.0 0.00 0.00 0.00 83 1021.4
20260507063637 53 232 2.0 5.0 0.00 0.00 0.00 83 1021.4
20260507063138 53 247 2.0 8.0 0.00 0.00 0.00 83 1021.5
20260507062637 53 262 2.0 8.0 0.00 0.00 0.00 83 1021.5
20260507062138 53 240 1.0 4.0 0.00 0.00 0.00 83 1021.5
20260507061635 53 259 1.0 6.0 0.00 0.00 0.00 83 1021.5
20260507061135 53 219 1.0 6.0 0.00 0.00 0.00 83 1021.5
20260507060636 53 250 1.0 5.0 0.00 0.00 0.00 83 1021.5
20260507060133 53 250 2.0 6.0 0.00 0.00 0.00 83 1021.5
20260507055635 53 284 2.0 6.0 0.00 0.00 0.00 83 1021.6
20260507055132 53 275 1.0 6.0 0.00 0.00 0.00 83 1021.5
20260507054635 53 270 2.0 4.0 0.00 0.00 0.00 83 1021.5
20260507054133 53 265 2.0 6.0 0.00 0.00 0.00 83 1021.5
20260507053638 53 248 2.0 5.0 0.00 0.00 0.00 83 1021.4
20260507053634 53 201 2.0 6.0 0.00 0.00 0.00 83 1021.5
20260507052633 53 286 2.0 9.0 0.00 0.00 0.00 84 1021.4
20260507052131 52 221 2.0 9.0 0.00 0.00 0.00 84 1021.5
20260507051630 52 258 2.0 7.0 0.00 0.00 0.00 84 1021.5
20260507051131 52 236 1.0 7.0 0.00 0.00 0.00 84 1021.5
20260507050630 52 259 1.0 6.0 0.00 0.00 0.00 84 1021.5
20260507050136 52 266 2.0 7.0 0.00 0.00 0.00 83 1021.5
20260507050130 52 250 1.0 6.0 0.00 0.00 0.00 84 1021.5
20260507045131 52 268 2.0 7.0 0.00 0.00 0.00 83 1021.5
20260507044631 52 260 2.0 7.0 0.00 0.00 0.00 83 1021.5
20260507044130 52 252 2.0 7.0 0.00 0.00 0.00 83 1021.5
20260507043629 52 253 2.0 7.0 0.00 0.00 0.00 83 1021.4
20260507043134 52 245 3.0 10.0 0.00 0.00 0.00 83 1021.4
20260507043129 52 246 3.0 10.0 0.00 0.00 0.00 83 1021.4
20260507042130 52 252 2.0 7.0 0.00 0.00 0.00 83 1021.4
20260507041630 52 238 2.0 6.0 0.00 0.00 0.00 83 1021.3
20260507041127 52 279 2.0 9.0 0.00 0.00 0.00 83 1021.4
20260507040631 53 234 2.0 8.0 0.00 0.00 0.00 83 1021.2
20260507040627 52 271 2.0 9.0 0.00 0.00 0.00 83 1021.3
20260507035627 53 252 2.0 8.0 0.00 0.00 0.00 83 1021.2
20260507035126 53 293 2.0 12.0 0.00 0.00 0.00 83 1021.1
20260507034625 53 236 2.0 12.0 0.00 0.00 0.00 83 1021.0
20260507034125 53 250 3.0 7.0 0.00 0.00 0.00 82 1021.0
20260507033625 53 223 3.0 8.0 0.00 0.00 0.00 82 1020.9
20260507033124 53 261 3.0 8.0 0.00 0.00 0.00 82 1020.9
20260507032623 53 294 2.0 8.0 0.00 0.00 0.00 82 1020.9
20260507032120 53 209 3.0 9.0 0.00 0.00 0.00 81 1020.8
20260507031622 53 227 3.0 9.0 0.00 0.00 0.00 81 1020.9
20260507031121 54 257 3.0 9.0 0.00 0.00 0.00 81 1020.9
20260507030621 54 215 3.0 9.0 0.00 0.00 0.00 81 1020.8
20260507030120 54 239 3.0 10.0 0.00 0.00 0.00 80 1020.8
20260507025620 54 231 3.0 10.0 0.00 0.00 0.00 80 1020.8
20260507025121 54 257 3.0 10.0 0.00 0.00 0.00 80 1020.8
20260507024620 54 268 3.0 10.0 0.00 0.00 0.00 80 1020.8
20260507024120 55 300 2.0 7.0 0.00 0.00 0.00 79 1020.7
20260507023620 55 243 3.0 9.0 0.00 0.00 0.00 79 1020.6
20260507023122 55 305 4.0 12.0 0.00 0.00 0.00 78 1020.6
20260507022620 56 249 3.0 12.0 0.00 0.00 0.00 78 1020.6
20260507022120 56 233 3.0 10.0 0.00 0.00 0.00 78 1020.6
20260507021620 56 243 4.0 10.0 0.00 0.00 0.00 77 1020.7
20260507021121 56 299 4.0 11.0 0.00 0.00 0.00 77 1020.7
20260507020621 57 300 4.0 11.0 0.00 0.00 0.00 76 1020.6
20260507020121 57 248 4.0 11.0 0.00 0.00 0.00 76 1020.7
20260507015621 57 284 4.0 11.0 0.00 0.00 0.00 75 1020.7
20260507015121 58 319 4.0 10.0 0.00 0.00 0.00 75 1020.7
20260507014621 58 314 4.0 10.0 0.00 0.00 0.00 75 1020.7
20260507014120 58 226 4.0 10.0 0.00 0.00 0.00 75 1020.7
20260507013621 58 333 4.0 12.0 0.00 0.00 0.00 74 1020.7
20260507013121 58 238 4.0 12.0 0.00 0.00 0.00 74 1020.7
20260507012620 58 338 5.0 10.0 0.00 0.00 0.00 74 1020.7
20260507012125 59 261 5.0 14.0 0.00 0.00 0.00 74 1020.8
20260507012120 58 219 5.0 14.0 0.00 0.00 0.00 74 1020.8
20260507011121 59 278 5.0 11.0 0.00 0.00 0.00 74 1020.8
20260507010621 59 304 5.0 12.0 0.00 0.00 0.00 73 1020.8
20260507010121 59 284 5.0 12.0 0.00 0.00 0.00 72 1020.9
20260507005626 60 286 4.0 10.0 0.00 0.00 0.00 72 1020.7
20260507005622 60 265 5.0 11.0 0.00 0.00 0.00 73 1020.8
20260507004620 60 229 4.0 10.0 0.00 0.00 0.00 72 1020.7
20260507004120 60 287 4.0 14.0 0.00 0.00 0.00 74 1020.7
20260507003620 60 245 4.0 14.0 0.00 0.00 0.00 71 1020.7
20260507003126 61 243 5.0 13.0 0.00 0.00 0.00 71 1020.6
20260507003122 60 236 5.0 12.0 0.00 0.00 0.00 71 1020.7
20260507002122 61 257 5.0 13.0 0.00 0.00 0.00 71 1020.7
20260507001620 61 298 6.0 15.0 0.00 0.00 0.00 70 1020.7
20260507001120 61 269 5.0 15.0 0.00 0.00 0.00 70 1020.7
20260507000623 62 263 5.0 15.0 0.00 0.00 0.00 70 1020.7
20260507000617 62 254 5.0 15.0 0.00 0.00 0.00 70 1020.6
20260506235616 61 280 5.0 14.0 0.00 0.00 0.00 71 1020.6
20260506235120 62 235 5.0 14.0 0.00 0.00 0.00 69 1020.5
20260506235116 62 294 5.0 14.0 0.00 0.00 0.00 70 1020.5
20260506234117 62 319 5.0 12.0 0.00 0.00 0.00 72 1020.6
20260506233617 62 259 5.0 11.0 0.00 0.00 0.00 70 1020.6
20260506233113 62 262 5.0 13.0 0.00 0.00 0.00 69 1020.6
20260506232619 63 307 3.0 16.0 0.00 0.00 0.00 70 1020.6
20260506232614 63 268 4.0 13.0 0.00 0.00 0.00 69 1020.6
20260506232227 63 272 5.0 16.0 0.00 0.00 0.00 71 1020.6
20260506231115 62 229 7.0 14.0 0.00 0.00 0.00 70 1020.6
20260506230614 63 222 6.0 14.0 0.00 0.00 0.00 68 1020.6
20260506230117 63 253 4.0 11.0 0.00 0.00 0.00 68 1020.7
20260506230112 63 167 5.0 14.0 0.00 0.00 0.00 69 1020.7
20260506225112 64 194 4.0 10.0 0.00 0.00 0.00 68 1020.7
20260506224612 64 238 4.0 10.0 0.00 0.00 0.00 67 1020.7
20260506224110 64 224 4.0 13.0 0.00 0.00 0.00 68 1020.6
20260506223611 64 275 5.0 14.0 0.00 0.00 0.00 72 1020.6
20260506223111 63 232 5.0 14.0 0.00 0.00 0.00 69 1020.7
20260506222611 64 221 5.0 13.0 0.00 0.00 0.00 68 1020.6
20260506222110 64 252 5.0 13.0 0.00 0.00 0.00 68 1020.8
20260506221615 64 275 5.0 12.0 0.00 0.00 0.00 69 1020.7
20260506221610 64 295 5.0 13.0 0.00 0.00 0.00 70 1020.7
20260506221225 64 255 5.0 13.0 0.00 0.00 0.00 68 1020.6
20260506220110 64 258 6.0 13.0 0.00 0.00 0.00 69 1020.6
20260506215610 64 211 5.0 13.0 0.00 0.00 0.00 70 1020.5
20260506215108 64 292 5.0 13.0 0.00 0.00 0.00 70 1020.6
20260506214609 64 280 5.0 14.0 0.00 0.00 0.00 66 1020.5
20260506214109 65 219 5.0 14.0 0.00 0.00 0.00 68 1020.5
20260506213612 65 257 5.0 13.0 0.00 0.00 0.00 65 1020.6
20260506213608 65 339 5.0 11.0 0.00 0.00 0.00 68 1020.6
20260506213222 65 236 4.0 13.0 0.00 0.00 0.00 70 1020.7
20260506212113 65 299 5.0 11.0 0.00 0.00 0.00 70 1020.6
20260506212109 65 254 4.0 11.0 0.00 0.00 0.00 70 1020.7
20260506211223 64 254 4.0 10.0 0.00 0.00 0.00 71 1020.6
20260506211113 65 243 4.0 10.0 0.00 0.00 0.00 66 1020.6
20260506211109 65 284 5.0 11.0 0.00 0.00 0.00 67 1020.7
20260506210220 64 262 5.0 14.0 0.00 0.00 0.00 69 1020.7
20260506205107 64 309 7.0 16.0 0.00 0.00 0.00 67 1020.7
20260506204606 64 190 5.0 16.0 0.00 0.00 0.00 70 1020.7
20260506204106 64 227 4.0 12.0 0.00 0.00 0.00 69 1020.7
20260506203606 64 282 6.0 12.0 0.00 0.00 0.00 73 1020.7
20260506203106 63 215 5.0 13.0 0.00 0.00 0.00 71 1020.7
20260506202606 63 236 6.0 13.0 0.00 0.00 0.00 68 1020.7
20260506202105 63 227 5.0 12.0 0.00 0.00 0.00 70 1020.7
20260506201605 64 224 4.0 12.0 0.00 0.00 0.00 70 1020.7
20260506201110 64 244 4.0 12.0 0.00 0.00 0.00 71 1020.9
20260506201106 64 229 4.0 12.0 0.00 0.00 0.00 70 1020.8
20260506195602 63 263 4.0 9.0 0.00 0.00 0.00 71 1021.0
20260506195102 63 144 4.0 9.0 0.00 0.00 0.00 74 1020.9
20260506194602 63 259 4.0 9.0 0.00 0.00 0.00 72 1021.0
20260506194101 63 232 4.0 11.0 0.00 0.00 0.00 73 1021.0
20260506193607 63 302 4.0 12.0 0.00 0.00 0.00 71 1020.9
20260506193602 63 205 4.0 12.0 0.00 0.00 0.00 70 1020.9
20260506192603 63 299 5.0 13.0 0.00 0.00 0.00 71 1021.0
20260506192107 63 219 4.0 10.0 0.00 0.00 0.00 73 1021.0
20260506192103 63 292 5.0 13.0 0.00 0.00 0.00 73 1021.0
20260506191102 63 195 6.0 15.0 0.00 0.00 0.00 73 1020.9
20260506190607 63 213 3.0 9.0 0.00 0.00 0.00 75 1020.9
20260506190601 63 222 5.0 15.0 0.00 0.00 0.00 71 1020.9
20260506190215 63 236 3.0 10.0 0.00 0.00 0.00 72 1020.9
20260506185603 63 238 3.0 10.0 0.00 0.00 0.00 72 1020.8
20260506184601 62 304 3.0 7.0 0.00 0.00 0.00 71 1020.8
20260506184059 62 288 3.0 7.0 0.00 0.00 0.00 74 1020.8
20260506183559 62 201 2.0 7.0 0.00 0.00 0.00 73 1020.8
20260506183058 62 233 2.0 7.0 0.00 0.00 0.00 73 1020.8
20260506182556 62 267 2.0 7.0 0.00 0.00 0.00 75 1020.8
20260506182056 61 233 2.0 5.0 0.00 0.00 0.00 75 1020.9
20260506181557 61 259 3.0 6.0 0.00 0.00 0.00 77 1020.9
20260506181056 61 259 2.0 6.0 0.00 0.00 0.00 78 1020.9
20260506180557 60 230 2.0 6.0 0.00 0.00 0.00 77 1020.9
20260506180055 60 236 2.0 7.0 0.00 0.00 0.00 77 1021.0
20260506175554 60 278 2.0 7.0 0.00 0.00 0.00 78 1021.1
20260506175052 59 276 2.0 6.0 0.00 0.00 0.00 77 1021.0
20260506174551 59 287 2.0 6.0 0.00 0.00 0.00 77 1020.9
20260506174052 59 264 1.0 4.0 0.00 0.00 0.00 79 1020.9
20260506173555 59 252 1.0 2.0 0.00 0.00 0.00 78 1020.8
20260506173550 59 269 1.0 4.0 0.00 0.00 0.00 78 1020.9
20260506172553 58 255 1.0 4.0 0.00 0.00 0.00 80 1020.8
20260506172548 58 250 1.0 4.0 0.00 0.00 0.00 78 1020.8
20260506171549 58 181 1.0 4.0 0.00 0.00 0.00 79 1020.6
20260506171049 58 180 2.0 5.0 0.00 0.00 0.00 78 1020.7
20260506170546 58 225 1.0 5.0 0.00 0.00 0.00 79 1020.8
20260506170045 57 226 1.0 4.0 0.00 0.00 0.00 80 1020.8
20260506165547 57 230 1.0 5.0 0.00 0.00 0.00 81 1021.0
20260506165045 57 292 1.0 5.0 0.00 0.00 0.00 81 1021.0
20260506164546 57 213 1.0 3.0 0.00 0.00 0.00 80 1021.0
20260506164047 57 275 1.0 3.0 0.00 0.00 0.00 81 1021.0
20260506163547 56 270 1.0 2.0 0.00 0.00 0.00 81 1020.9
20260506163046 56 234 1.0 2.0 0.00 0.00 0.00 81 1020.9
20260506162547 56 250 1.0 2.0 0.00 0.00 0.00 81 1020.9
20260506162046 56 217 1.0 4.0 0.00 0.00 0.00 82 1021.0
20260506161546 56 215 1.0 4.0 0.00 0.00 0.00 83 1020.9
20260506161046 56 277 1.0 3.0 0.00 0.00 0.00 83 1021.0
20260506160546 55 301 1.0 3.0 0.00 0.00 0.00 82 1020.9
20260506160045 55 250 1.0 3.0 0.00 0.00 0.00 83 1020.9
20260506155546 55 260 1.0 3.0 0.00 0.00 0.00 83 1020.8
20260506155047 55 248 1.0 3.0 0.00 0.00 0.00 83 1020.8
20260506154543 55 244 1.0 5.0 0.00 0.00 0.00 84 1020.7
20260506154044 55 215 2.0 5.0 0.00 0.00 0.00 82 1020.6
20260506153543 55 186 2.0 5.0 0.00 0.00 0.00 83 1020.6
20260506153044 54 213 2.0 5.0 0.00 0.00 0.00 83 1020.5
20260506152541 54 236 3.0 8.0 0.00 0.00 0.00 83 1020.3
20260506152039 54 222 3.0 8.0 0.00 0.00 0.00 83 1020.6